Change the Weather History Date:

Sunday, February 17, 2013

  Actual Average Record
Temperature  
Mean Temperature 24 °F -  
Max Temperature 32 °F 25 °F 57 °F (1981)
Min Temperature 15 °F 2 °F -36 °F (1936)
Degree Days  
Heating Degree Days 42    
Moisture  
Dew Point 21 °F    
Average Humidity 88    
Maximum Humidity 100    
Minimum Humidity 79    
Precipitation  
Precipitation 0.00 in - - ()
Sea Level Pressure  
Sea Level Pressure 29.69 in    
Wind  
Wind Speed 13 mph (SSE)    
Max Wind Speed 21 mph    
Max Gust Speed 29 mph    
Visibility 10 miles    
Events      
Averages and records for this station are not official NWS values.
T = Trace of Precipitation, MM = Missing Value Source: NWS Daily Summary

Daily Weather History Graph

Daily Weather History Graph

Search for Another Location

Airport or City:

Trip Planner

Search our weather history database for the weather conditions in past years. The results will help you decide how hot, cold, wet, or windy it might be!

Date:

Astronomy

Feb. 17, 2013 Rise Set
Actual Time 7:23 AM CST 5:51 PM CST
Civil Twilight 6:52 AM CST 6:22 PM CST
Nautical Twilight 6:17 AM CST 6:58 PM CST
Astronomical Twilight 5:42 AM CST 7:33 PM CST
Moon 10:47 AM CST (2/17) 1:17 AM CST (2/17)
Length of Visible Light 11h 30m
Length of Day
10h 27m
Waxing Crescent, 49% of the Moon is Illuminated
Feb 17
Waxing Crescent
Feb 17
First Quarter
Feb 25
Full
Mar 4
Last Quarter
Mar 11
New

Hourly Weather History & Observations

Time (CST) Temp. Windchill Dew Point Humidity Pressure Visibility Wind Dir Wind Speed Gust Speed Precip Events Conditions
12:16 AM 15.8 °F 4.2 °F 12.2 °F 86% 29.96 in 10.0 mi SSE 9.2 mph - N/A   Mostly Cloudy
12:35 AM 15.8 °F 4.2 °F 12.2 °F 86% 29.96 in 10.0 mi SSE 9.2 mph - N/A   Scattered Clouds
12:56 AM 15.8 °F 3.4 °F 12.2 °F 86% 29.96 in 10.0 mi SSE 10.4 mph - N/A   Clear
1:15 AM 17.6 °F 5.7 °F 12.2 °F 79% 29.95 in 10.0 mi South 10.4 mph - N/A   Clear
1:36 AM 17.6 °F 4.3 °F 14.0 °F 86% 29.94 in 10.0 mi SSE 12.7 mph - N/A   Scattered Clouds
1:55 AM 17.6 °F 5.0 °F 12.2 °F 79% 29.93 in 10.0 mi SSE 11.5 mph - N/A   Mostly Cloudy
2:15 AM 17.6 °F 4.3 °F 14.0 °F 86% 29.92 in 10.0 mi SSE 12.7 mph - N/A   Scattered Clouds
2:35 AM 17.6 °F 2.7 °F 14.0 °F 86% 29.91 in 10.0 mi South 16.1 mph - N/A   Scattered Clouds
2:55 AM 17.6 °F 2.7 °F 14.0 °F 86% 29.89 in 10.0 mi SSE 16.1 mph - N/A   Mostly Cloudy
3:15 AM 17.6 °F 3.7 °F 14.0 °F 86% 29.88 in 10.0 mi SSE 13.8 mph - N/A   Overcast
3:35 AM 17.6 °F 2.7 °F 14.0 °F 86% 29.88 in 10.0 mi SSE 16.1 mph - N/A   Overcast
3:56 AM 19.4 °F 6.0 °F 14.0 °F 80% 29.87 in 10.0 mi South 13.8 mph 18.4 mph N/A   Overcast
4:15 AM 19.4 °F 6.0 °F 15.8 °F 86% 29.86 in 10.0 mi SSE 13.8 mph - N/A   Mostly Cloudy
4:35 AM 19.4 °F 7.2 °F 15.8 °F 86% 29.86 in 10.0 mi South 11.5 mph - N/A   Overcast
4:55 AM 19.4 °F 6.6 °F 17.6 °F 93% 29.84 in 10.0 mi SSE 12.7 mph - N/A   Overcast
5:15 AM 19.4 °F 6.0 °F 17.6 °F 93% 29.83 in 10.0 mi SSE 13.8 mph - N/A   Overcast
5:36 AM 19.4 °F 6.0 °F 17.6 °F 93% 29.82 in 10.0 mi SSE 13.8 mph - N/A   Overcast
5:55 AM 19.4 °F 6.0 °F 17.6 °F 93% 29.82 in 10.0 mi South 13.8 mph - N/A   Overcast
6:15 AM 19.4 °F 5.0 °F 17.6 °F 93% 29.80 in 10.0 mi SSE 16.1 mph - N/A   Overcast
6:36 AM 19.4 °F 5.5 °F 17.6 °F 93% 29.80 in 10.0 mi SSE 15.0 mph 21.9 mph N/A   Overcast
6:55 AM 19.4 °F 6.0 °F 17.6 °F 93% 29.80 in 10.0 mi South 13.8 mph - N/A   Overcast
7:15 AM 19.4 °F 5.5 °F 19.4 °F 100% 29.78 in 10.0 mi SSE 15.0 mph - N/A   Overcast
7:36 AM 19.4 °F 6.0 °F 19.4 °F 100% 29.77 in 7.0 mi SSE 13.8 mph - N/A   Overcast
7:55 AM 19.4 °F 5.5 °F 19.4 °F 100% 29.76 in 7.0 mi SSE 15.0 mph - N/A   Overcast
8:15 AM 21.2 °F 8.3 °F 19.4 °F 93% 29.76 in 7.0 mi SSE 13.8 mph - N/A   Overcast
8:36 AM 21.2 °F 8.3 °F 19.4 °F 93% 29.75 in 10.0 mi SSE 13.8 mph - N/A   Overcast
8:55 AM 21.2 °F 8.9 °F 21.2 °F 100% 29.74 in 10.0 mi SSE 12.7 mph 20.7 mph N/A   Overcast
9:15 AM 23.0 °F 9.2 °F 19.4 °F 86% 29.73 in 10.0 mi SSE 17.3 mph - N/A   Mostly Cloudy
9:36 AM 21.2 °F 6.8 °F 19.4 °F 93% 29.73 in 10.0 mi SSE 17.3 mph - N/A   Scattered Clouds
9:55 AM 21.2 °F 8.3 °F 19.4 °F 93% 29.73 in 10.0 mi SSE 13.8 mph - N/A   Clear
10:15 AM 23.0 °F 10.1 °F 19.4 °F 86% 29.72 in 10.0 mi SSE 15.0 mph - N/A   Clear
10:36 AM 23.0 °F 10.1 °F 21.2 °F 93% 29.71 in 10.0 mi SSE 15.0 mph - N/A   Clear
10:55 AM 24.8 °F 11.9 °F 21.2 °F 86% 29.69 in 10.0 mi SSE 16.1 mph - N/A   Clear
11:15 AM 26.6 °F 12.7 °F 23.0 °F 86% 29.68 in 10.0 mi SSE 20.7 mph 26.5 mph N/A   Clear
11:36 AM 28.4 °F 15.4 °F 23.0 °F 80% 29.67 in 10.0 mi SSE 19.6 mph 24.2 mph N/A   Clear
11:55 AM 28.4 °F 15.4 °F 23.0 °F 80% 29.66 in 10.0 mi SSE 19.6 mph - N/A   Clear
12:15 PM 28.4 °F 15.8 °F 23.0 °F 80% 29.65 in 10.0 mi SSE 18.4 mph - N/A   Clear
12:36 PM 28.4 °F 15.4 °F 23.0 °F 80% 29.64 in 10.0 mi SSE 19.6 mph 24.2 mph N/A   Clear
12:55 PM 30.2 °F 17.8 °F 24.8 °F 80% 29.62 in 10.0 mi South 19.6 mph 28.8 mph N/A   Clear
1:16 PM 30.2 °F 17.8 °F 24.8 °F 80% 29.62 in 10.0 mi SSE 19.6 mph - N/A   Clear
1:36 PM 30.2 °F 19.3 °F 26.6 °F 86% 29.61 in 10.0 mi South 15.0 mph 21.9 mph N/A   Clear
1:55 PM 32.0 °F 20.5 °F 26.6 °F 80% 29.60 in 10.0 mi South 18.4 mph - N/A   Clear
2:16 PM 30.2 °F 20.2 °F 24.8 °F 80% 29.59 in 10.0 mi SSE 12.7 mph - N/A   Clear
2:36 PM 30.2 °F 19.3 °F 26.6 °F 86% 29.59 in 10.0 mi SSE 15.0 mph - N/A   Clear
2:55 PM 32.0 °F 21.2 °F 26.6 °F 80% 29.58 in 10.0 mi SSE 16.1 mph 21.9 mph N/A   Clear
3:16 PM 32.0 °F 20.5 °F 26.6 °F 80% 29.57 in 10.0 mi SSE 18.4 mph 24.2 mph N/A   Clear
3:35 PM 32.0 °F 19.8 °F 26.6 °F 80% 29.56 in 10.0 mi SSE 20.7 mph 25.3 mph N/A   Clear
3:55 PM 32.0 °F 21.2 °F 26.6 °F 80% 29.56 in 10.0 mi SSE 16.1 mph - N/A   Clear
4:16 PM 30.2 °F 18.1 °F 26.6 °F 86% 29.55 in 10.0 mi SSE 18.4 mph 23.0 mph N/A   Clear
4:36 PM 30.2 °F 18.1 °F 24.8 °F 80% 29.56 in 10.0 mi SSE 18.4 mph - N/A   Clear
4:55 PM 28.4 °F 15.4 °F 24.8 °F 86% 29.55 in 10.0 mi SSE 19.6 mph 24.2 mph N/A   Clear
5:16 PM 28.4 °F 15.8 °F 24.8 °F 86% 29.55 in 10.0 mi SSE 18.4 mph - N/A   Clear
5:36 PM 28.4 °F 15.4 °F 24.8 °F 86% 29.55 in 10.0 mi SSE 19.6 mph - N/A   Clear
5:55 PM 28.4 °F 17.0 °F 24.8 °F 86% 29.56 in 10.0 mi SSE 15.0 mph - N/A   Clear
6:16 PM 28.4 °F 16.2 °F 24.8 °F 86% 29.56 in 10.0 mi SSE 17.3 mph - N/A   Clear
6:36 PM 28.4 °F 16.6 °F 26.6 °F 93% 29.56 in 10.0 mi SSE 16.1 mph 21.9 mph N/A   Clear
6:55 PM 28.4 °F 17.0 °F 24.8 °F 86% 29.56 in 10.0 mi SSE 15.0 mph - N/A   Scattered Clouds
7:16 PM 28.4 °F 17.5 °F 26.6 °F 93% 29.56 in 10.0 mi SSE 13.8 mph - N/A   Scattered Clouds
7:36 PM 28.4 °F 18.0 °F 26.6 °F 93% 29.56 in 10.0 mi SSE 12.7 mph - N/A   Clear
7:55 PM 28.4 °F 18.5 °F 26.6 °F 93% 29.56 in 10.0 mi SSE 11.5 mph - N/A   Clear
8:16 PM 28.4 °F 18.5 °F 24.8 °F 86% 29.55 in 10.0 mi SSE 11.5 mph - N/A   Clear
8:35 PM 28.4 °F 19.1 °F 26.6 °F 93% 29.54 in 10.0 mi SSE 10.4 mph - N/A   Clear
8:55 PM 28.4 °F 19.7 °F 26.6 °F 93% 29.54 in 10.0 mi SE 9.2 mph - N/A   Clear
9:16 PM 28.4 °F 21.2 °F 24.8 °F 86% 29.54 in 10.0 mi SE 6.9 mph - N/A   Scattered Clouds
9:35 PM 26.6 °F 17.5 °F 24.8 °F 93% 29.54 in 10.0 mi SE 9.2 mph - N/A   Mostly Cloudy
9:55 PM 26.6 °F 18.2 °F 24.8 °F 93% 29.53 in 10.0 mi SE 8.1 mph - N/A   Mostly Cloudy
10:16 PM 26.6 °F 18.2 °F 24.8 °F 93% 29.53 in 10.0 mi SSE 8.1 mph - N/A   Mostly Cloudy
10:35 PM 28.4 °F 20.4 °F 26.6 °F 93% 29.52 in 10.0 mi SE 8.1 mph - N/A   Mostly Cloudy
10:55 PM 28.4 °F 19.1 °F 26.6 °F 93% 29.52 in 10.0 mi SSE 10.4 mph - N/A   Mostly Cloudy
11:16 PM 28.4 °F 18.5 °F 26.6 °F 93% 29.51 in 10.0 mi SSE 11.5 mph - N/A   Mostly Cloudy
11:35 PM 28.4 °F 19.7 °F 26.6 °F 93% 29.51 in 10.0 mi SSE 9.2 mph - N/A   Overcast
11:55 PM 28.4 °F 20.4 °F 26.6 °F 93% 29.49 in 10.0 mi SSE 8.1 mph - N/A   Overcast